Location: ?????
(42.2640°N, 43.4211°E)
Time: 14:46:43
(UTC+00:00)

MSX - Pass Details

Date: 07 August 2020
Orbit: 896 x 905 km, 98.8° (Epoch: 19 September)

Event Time Altitude Azimuth Distance (km) Brightness Sun altitude
Rises 01:22:27 0° 6° (N) 3,530 7.5 -7.9°
Reaches altitude 10° 01:24:59 10° 360° (N) 2,586 6.7 -7.5°
Maximum altitude 01:30:19 41° 292° (WNW) 1,285 4.4 -6.7°
Drops below altitude 10° 01:35:39 10° 224° (SW) 2,577 5.6 -5.8°
Enters shadow 01:37:08 - 220° (SW) 3,120 6.1 -5.6°
